STARLINK-1333, 45580

Orbit data source: Space-Track

STARLINK-1333, 45580 is a payload satellite owned by SpaceX/Seattle (US) in LEO that was launched on Wed, 22 Apr 2020 UTC via an FALCON 9 launch vehicle from the Air Force Eastern Test Range (AFETR). Payload-class satellites include a variety of spacecraft equipped with specific instruments for various scientific and technological missions. These include communications satellites like Starlink; space stations such as the ISS; scientific satellites like the Hubble; Earth observation satellites from companies like Planet Labs, Umbra, and HawkEye 360; GPS; miniature CubeSats for education and research; and military/defense satellites.

Loading next visibility...
Identifier
45580, 2020-025BB
Orbit
LEO
Country
Flag of USUS
Related business
Manufacturer
SpaceX/Seattle
Mission
Operational Commercial Communications
Bus & Motor
STARLINK, Unknown motor
Mass
260 kg wet, ~248 kg dry
Launch date (UTC)
2020-04-22 (6 years ago)
Launch vehicle
FALCON 9
Launch site
Air Force Eastern Test Range (AFETR)
Object type
Payload
Rocket body
Debris
Shape & HBR
Box + 1 Pan, 10.1 m
Radar Cross Section
13.562 m², Large (>1 m²)

Expand to show TLE details & history
Last TLE update: 14 hours ago

TLE from 14 hours ago
0 STARLINK-1333
1 45580U 20025BB  26123.41063226  .00043547  00000-0  13829-2 0  9997
2 45580  53.1578 183.4558 0003074  30.3492 329.7688 15.32247519333889
Epoch: 2026-05-03T09:51Z
TLE epoch observation values (Epoch: 2026-05-03T09:51:18.627Z)
Latitude
0.00006°
Longitude
174.31366°
Altitude
468.19 km
Speed
7.634 km/s
True Right ascension
12h 13m 49s
True Declination
0° 00' 00"
Sunlit
Object was in full shadow at epoch
Visualization orbit readout
Latitude
Unknown
Longitude
Unknown
Altitude
Unknown
Speed
Unknown
Apparent Right ascension
Unknown
Apparent Declination
Unknown
Sunlit
N/A
Visualization observer readout
Local Sidereal Time
07:29:21
Azimuth
Unknown
Elevation
Unknown
Doppler factor
Unknown
Orbital elements
Apogee altitude
471.47 km
Perigee altitude
467.26 km
Semi-major axis
6,847.502 km
Eccentricity
0.00031
Inclination
53.1578°
RAAN
183.4558°
Arg. of periapsis
30.3492°
True anomaly
329.75106°
Mean anomaly
329.7688°
Eccentric anomaly
329.75993°
Mean motion
3.83041 °/min
Orbital period
93.98 mins
BSTAR
0.0013829
Loading maneuver chart data...
Computing Atmospheric mass density...

Documentation

Showing up to 5 results
|